KK7NDB Weather Reports


time (UTC)temp
C
wind
direction
speed
KPH
gust
KPH
rain 1hr
cm
rain 24hr
cm
rain mn
cm
humidity
%
barometer
mb
20260505070612 10 240 1.6 3.2 0.00 0.00 0.00 66 999.0
20260505070108 10 91 0.0 1.6 0.00 0.00 0.00 65 999.1
20260505065604 10 91 0.0 1.6 0.00 0.00 0.00 65 999.1
20260505065100 10 107 0.0 1.6 0.00 0.00 0.00 65 999.0
20260505064557 10 104 4.8 6.4 0.00 0.00 0.00 63 999.1
20260505064056 10 104 4.8 6.4 0.00 0.00 0.00 63 999.1
20260505063553 10 104 4.8 6.4 0.00 0.00 0.00 63 999.1
20260505063048 11 73 3.2 8.0 0.00 0.00 0.00 61 999.0
20260505062545 11 73 3.2 8.0 0.00 0.00 0.00 61 999.0
20260505062043 11 73 3.2 8.0 0.00 0.00 0.00 61 999.0
20260505061540 11 73 3.2 8.0 0.00 0.00 0.00 61 998.9
20260505061038 11 73 3.2 8.0 0.00 0.00 0.00 61 999.1
20260505060535 11 73 3.2 8.0 0.00 0.00 0.00 61 998.7
20260505060031 11 73 3.2 8.0 0.00 0.00 0.00 61 999.0
20260505055527 11 73 3.2 8.0 0.00 0.00 0.00 61 999.0
20260505055024 11 73 3.2 8.0 0.00 0.00 0.00 61 998.9
20260505054521 11 97 6.4 11.3 0.00 0.00 0.00 61 998.9
20260505054019 11 80 6.4 6.4 0.00 0.00 0.00 61 998.9
20260505053516 11 107 3.2 6.4 0.00 0.00 0.00 61 998.7
20260505053013 11 107 3.2 6.4 0.00 0.00 0.00 61 998.9
20260505052510 11 75 1.6 3.2 0.00 0.00 0.00 60 998.9
20260505052007 11 218 1.6 6.4 0.00 0.00 0.00 62 998.5
20260505051504 11 137 1.6 4.8 0.00 0.00 0.00 63 998.4
20260505051002 11 89 0.0 4.8 0.00 0.00 0.00 62 998.6
20260505050500 11 268 0.0 3.2 0.00 0.00 0.00 56 998.5
20260505041427 11 93 1.6 3.2 0.00 0.00 0.00 55 997.8
20260505040925 11 93 1.6 3.2 0.00 0.00 0.00 55 997.9
20260505040422 11 51 3.2 3.2 0.00 0.00 0.00 55 997.9
20260505035919 12 81 4.8 4.8 0.00 0.00 0.00 53 998.4
20260505035415 12 81 4.8 4.8 0.00 0.00 0.00 53 998.0
20260505034912 12 80 4.8 4.8 0.00 0.00 0.00 53 997.9
20260505034409 12 89 4.8 4.8 0.00 0.00 0.00 53 997.8
20260505033906 12 89 4.8 4.8 0.00 0.00 0.00 53 997.6
20260505033402 12 84 8.0 8.0 0.00 0.00 0.00 53 997.7
20260505032901 -17 0.0 0.0 0.00 0.00 0.00 997.7
20260505032357 -17 0.0 0.0 0.00 0.00 0.00 997.7
20260505031854 -17 0.0 0.0 0.00 0.00 0.00 997.6
20260505031351 -17 0.0 0.0 0.00 0.00 0.00 997.8
20260505030848 -17 0.0 0.0 0.00 0.00 0.00 997.6
20260505030344 -17 0.0 0.0 0.00 0.00 0.00 997.6
20260505025839 -17 0.0 0.0 0.00 0.00 0.00 997.6
20260505025337 -17 0.0 0.0 0.00 0.00 0.00 997.7
20260505024836 -17 0.0 0.0 0.00 0.00 0.00 997.7
20260505024333 -17 0.0 0.0 0.00 0.00 0.00 997.6
20260505023830 -17 0.0 0.0 0.00 0.00 0.00 997.8
20260505023327 14 106 0.0 1.6 0.00 0.00 0.00 48 997.6
20260505022824 14 106 0.0 1.6 0.00 0.00 0.00 48 997.8
20260505022321 14 106 0.0 1.6 0.00 0.00 0.00 48 998.0
20260505021818 14 106 0.0 1.6 0.00 0.00 0.00 48 997.7
20260505021315 14 106 0.0 1.6 0.00 0.00 0.00 48 997.9
20260505020810 14 106 0.0 1.6 0.00 0.00 0.00 48 997.8
20260505020306 14 106 0.0 1.6 0.00 0.00 0.00 48 997.8
20260505015803 14 106 0.0 1.6 0.00 0.00 0.00 48 998.0
20260505015300 14 106 0.0 1.6 0.00 0.00 0.00 48 997.8
20260505014758 14 106 0.0 1.6 0.00 0.00 0.00 48 997.9
20260505014255 14 106 0.0 1.6 0.00 0.00 0.00 48 997.8
20260505013751 14 283 1.6 6.4 0.00 0.00 0.00 48 997.9
20260505013248 14 118 0.0 3.2 0.00 0.00 0.00 46 997.7
20260505012746 15 227 3.2 4.8 0.00 0.00 0.00 45 997.8
20260505012244 15 49 0.0 3.2 0.00 0.00 0.00 44 997.7
20260505011739 15 128 0.0 3.2 0.00 0.00 0.00 43 997.7
20260505011237 15 233 0.0 1.6 0.00 0.00 0.00 43 997.7
20260505010732 15 92 3.2 3.2 0.00 0.00 0.00 40 997.6
20260505010228 16 43 1.6 1.6 0.00 0.00 0.00 40 997.3
20260505005725 16 58 3.2 3.2 0.00 0.00 0.00 39 997.6
20260505005222 16 38 6.4 8.0 0.00 0.00 0.00 39 997.3
20260505004719 16 38 6.4 8.0 0.00 0.00 0.00 39 997.4
20260505004216 16 38 6.4 8.0 0.00 0.00 0.00 39 997.4
20260505003713 16 38 6.4 8.0 0.00 0.00 0.00 39 997.6
20260505003211 16 38 6.4 8.0 0.00 0.00 0.00 39 997.4
20260505002707 16 71 4.8 6.4 0.00 0.00 0.00 41 997.7
20260505002205 16 71 4.8 9.7 0.00 0.00 0.00 41 997.6
20260505001701 15 66 8.0 8.0 0.00 0.00 0.00 42 997.9
20260505001159 15 224 0.0 0.0 0.00 0.00 0.00 42 997.8
20260505000656 15 224 0.0 0.0 0.00 0.00 0.00 42 997.8
20260505000154 15 129 0.0 1.6 0.00 0.00 0.00 41 998.0
20260504235650 15 129 0.0 1.6 0.00 0.00 0.00 41 997.9
20260504235146 15 55 3.2 4.8 0.00 0.00 0.00 48 998.0
20260504234644 15 55 3.2 4.8 0.00 0.00 0.00 48 998.1
20260504234141 15 55 3.2 4.8 0.00 0.00 0.00 48 998.1
20260504233637 15 55 3.2 4.8 0.00 0.00 0.00 48 998.3
20260504233133 15 55 3.2 4.8 0.00 0.00 0.00 48 998.3
20260504232631 15 55 3.2 4.8 0.00 0.00 0.00 48 998.0
20260504232127 15 55 3.2 4.8 0.00 0.00 0.00 48 998.3
20260504231624 15 55 3.2 4.8 0.00 0.00 0.00 48 998.0
20260504231120 15 252 3.2 8.0 0.00 0.00 0.00 49 998.1
20260504230616 15 122 1.6 8.0 0.00 0.00 0.00 45 998.1
20260504230116 15 122 1.6 8.0 0.00 0.00 0.00 45 998.3
20260504225613 15 122 1.6 8.0 0.00 0.00 0.00 45 998.4
20260504225109 15 122 1.6 8.0 0.00 0.00 0.00 45 998.4
20260504224606 15 122 1.6 8.0 0.00 0.00 0.00 45 998.6
20260504224103 15 250 3.2 8.0 0.00 0.00 0.00 41 998.9
20260504223600 15 250 3.2 8.0 0.00 0.00 0.00 41 998.9
20260504223055 15 230 3.2 8.0 0.00 0.00 0.00 42 998.9
20260504222553 15 230 4.8 11.3 0.00 0.00 0.00 40 998.9
20260504222050 16 232 3.2 4.8 0.00 0.00 0.00 38 998.6
20260504221547 16 232 3.2 4.8 0.00 0.00 0.00 38 998.5
20260504221044 16 232 3.2 4.8 0.00 0.00 0.00 38 998.5
20260504220540 17 181 0.0 3.2 0.00 0.00 0.00 35 998.5
20260504220037 17 181 0.0 3.2 0.00 0.00 0.00 35 998.4
20260504215534 17 181 0.0 3.2 0.00 0.00 0.00 35 998.3
20260504215032 17 181 0.0 3.2 0.00 0.00 0.00 35 998.3
20260504214527 17 181 0.0 3.2 0.00 0.00 0.00 35 998.4
20260504214024 18 79 6.4 6.4 0.00 0.00 0.00 35 998.4
20260504213521 18 121 1.6 4.8 0.00 0.00 0.00 33 998.0
20260504213018 18 40 4.8 8.0 0.00 0.00 0.00 32 997.9
20260504212513 18 26 3.2 3.2 0.00 0.00 0.00 33 997.9
20260504212011 17 96 11.3 12.9 0.00 0.00 0.00 32 997.8
20260504211508 18 102 12.9 14.5 0.00 0.00 0.00 32 997.8
20260504211005 19 101 16.1 25.7 0.00 0.00 0.00 30 997.6
20260504210502 18 83 11.3 19.3 0.00 0.00 0.00 32 997.6
20260504205958 18 93 16.1 24.1 0.00 0.00 0.00 31 997.7
20260504205456 18 102 20.9 20.9 0.00 0.00 0.00 32 997.6
20260504204954 18 71 12.9 16.1 0.00 0.00 0.00 32 997.8
20260504204452 20 102 27.4 35.4 0.00 0.00 0.00 31 997.7
20260504203951 20 102 27.4 35.4 0.00 0.00 0.00 31 997.7
20260504203448 20 65 4.8 6.4 0.00 0.00 0.00 32 997.8
20260504202944 21 265 1.6 3.2 0.00 0.00 0.00 29 997.8
20260504202441 21 238 3.2 3.2 0.00 0.00 0.00 25 997.7
20260504201938 22 236 3.2 6.4 0.00 0.00 0.00 25 997.8
20260504201435 20 252 3.2 3.2 0.00 0.00 0.00 26 997.8
20260504200932 20 252 3.2 3.2 0.00 0.00 0.00 26 997.9
20260504200429 21 219 6.4 6.4 0.00 0.00 0.00 25 998.0
20260504195926 21 239 3.2 3.2 0.00 0.00 0.00 25 997.8
20260504195422 20 329 3.2 3.2 0.00 0.00 0.00 32 998.0
20260504194918 20 245 1.6 4.8 0.00 0.00 0.00 28 998.3
20260504194414 20 264 0.0 1.6 0.00 0.00 0.00 28 998.0
20260504193910 20 126 4.8 4.8 0.00 0.00 0.00 27 998.0
20260504193408 21 222 0.0 8.0 0.00 0.00 0.00 27 998.1
20260504192907 21 247 8.0 8.0 0.00 0.00 0.00 26 998.1
20260504192403 21 253 6.4 9.7 0.00 0.00 0.00 28 998.0
20260504191902 22 267 1.6 4.8 0.00 0.00 0.00 27 998.1
20260504191400 21 278 1.6 3.2 0.00 0.00 0.00 25 998.3
20260504190855 21 253 3.2 6.4 0.00 0.00 0.00 27 998.1
20260504190351 21 67 6.4 6.4 0.00 0.00 0.00 24 998.4
20260504185848 20 200 0.0 3.2 0.00 0.00 0.00 26 998.5
20260504185345 20 144 3.2 9.7 0.00 0.00 0.00 26 998.5
20260504184841 20 229 6.4 11.3 0.00 0.00 0.00 27 998.5
20260504184337 20 54 1.6 8.0 0.00 0.00 0.00 29 998.6
20260504183832 20 231 3.2 9.7 0.00 0.00 0.00 32 998.6
20260504183330 20 239 6.4 17.7 0.00 0.00 0.00 30 998.6
20260504182828 20 265 6.4 9.7 0.00 0.00 0.00 32 998.6
20260504182325 19 244 6.4 14.5 0.00 0.00 0.00 32 998.9
20260504181822 19 259 9.7 11.3 0.00 0.00 0.00 32 999.0
20260504181319 20 354 3.2 17.7 0.00 0.00 0.00 32 998.5
20260504180818 21 232 8.0 14.5 0.00 0.00 0.00 30 998.6
20260504180316 21 231 4.8 14.5 0.00 0.00 0.00 32 998.6
20260504175814 21 274 3.2 4.8 0.00 0.00 0.00 30 998.7
20260504175311 21 269 3.2 3.2 0.00 0.00 0.00 30 999.0
20260504174809 22 280 4.8 8.0 0.00 0.00 0.00 29 999.0
20260504174306 20 20 4.8 9.7 0.00 0.00 0.00 31 999.1
20260504173802 20 0 0.0 4.8 0.00 0.00 0.00 32 999.0
20260504173259 20 228 6.4 9.7 0.00 0.00 0.00 31 999.2
20260504172756 21 264 9.7 9.7 0.00 0.00 0.00 29 999.3
20260504172253 21 39 0.0 8.0 0.00 0.00 0.00 31 999.1
20260504171749 18 157 0.0 3.2 0.00 0.00 0.00 33 999.2
20260504171246 18 57 6.4 9.7 0.00 0.00 0.00 34 999.6
20260504170743 20 92 6.4 6.4 0.00 0.00 0.00 38 999.5
20260504170240 18 1 0.0 9.7 0.00 0.00 0.00 34 999.2
20260504160159 16 68 0.0 3.2 0.00 0.00 0.00 39 1000.0
20260504151126 12 23 0.0 3.2 0.00 0.00 0.00 45 1000.5
20260504150624 12 244 0.0 3.2 0.00 0.00 0.00 49 1000.5
20260504150121 12 220 3.2 3.2 0.00 0.00 0.00 48 1000.6
20260504141049 10 62 4.8 4.8 0.00 0.00 0.00 47 1000.9
20260504140546 9 119 0.0 3.2 0.00 0.00 0.00 47 1000.8
20260504130510 6 67 1.6 4.8 0.00 0.00 0.00 49 1000.5
20260504110352 -17 0.0 0.0 0.00 0.00 0.00 1000.6
20260504100309 7 152 3.2 6.4 0.00 0.00 0.00 46 1000.8
20260504081702 7 93 4.8 4.8 0.00 0.00 0.00 43 1000.4
20260504081158 7 93 4.8 4.8 0.00 0.00 0.00 43 1000.5
20260504080655 7 93 4.8 4.8 0.00 0.00 0.00 43 1000.5
20260504080152 7 93 4.8 4.8 0.00 0.00 0.00 43 1000.4